Flag for Germany Weather past 2 weeks in Weißenfels, Saxony-Anhalt, Germany

Now
50 °F

Scattered clouds.


Feels Like: 49 °F
Forecast: 45 / 57 °F
Wind: 3 mph from North

Location: Leipzig-Schkeuditz

Current Time: May 26, 2015 at 8:59:20 AM

Latest Report: May 26, 2015 at 8:00 AM


Visibility: 28 mi

Pressure: 30.00 "Hg

Humidity: 73%

Dew point: 42 °F

Location of WeißenfelsLocation

Historic Weather in Weißenfels — Graph

°F

Weißenfels temperature yesterday

Maximum temperature yesterday: 67 °F (at 3:00 PM)
Minimum temperature yesterday: 55 °F (at 10:00 PM)
Average temperature yesterday: 60 °F

Past Weeks' High & Low Weather Summary

 TemperatureHumidityPressure
High82 °F (May 12, 4:00 PM)95% (May 15, 6:00 AM)30.37 "Hg (May 15, 6:00 AM)
Low39 °F (May 15, 6:00 AM)22% (May 12, 4:00 PM)29.64 "Hg (May 19, 4:00 AM)
Average56 °F60%30.04 "Hg
* Reported May 11 8:00 AM — May 26 8:00 AM, Weißenfels, Weather by CustomWeather, © 2015

Note: Actual official high and low records may vary slightly from our data, if they occured in-between our weather recording intervals... More about our weather records

Advertising

Weißenfels weather history for previous 24 hours

 ConditionsComfort  
Time TempWeatherWind HumidityBarometerVisibility
8:00 AM
Tue, May 26
50 °FScattered clouds.3 mph73%30.00 "Hg28 mi
7:00 AM47 °FScattered clouds.2 mph79%29.99 "Hg31 mi
4:00 AM49 °FOvercast.2 mph78%29.96 "Hg22 mi
3:00 AM51 °FOvercast.3 mph82%29.94 "Hg22 mi
2:00 AM53 °FOvercast.2 mph85%29.93 "Hg22 mi
1:00 AM53 °FOvercast.2 mph86%29.93 "Hg19 mi
12:00 AM54 °FOvercast.3 mph81%29.93 "Hg22 mi
10:00 PM
Mon, May 25
55 °FOvercast.3 mph79%29.92 "Hg19 mi
9:00 PM57 °FOvercast.6 mph76%29.90 "Hg19 mi
8:00 PM60 °FLight rain. Overcast.5 mph66%29.88 "Hg16 mi
7:00 PM60 °FLight rain. Overcast.3 mph68%29.88 "Hg16 mi
6:00 PM61 °FLight rain. Overcast.3 mph63%29.88 "Hg31 mi
5:00 PM62 °FOvercast.5 mph55%29.88 "Hg31 mi
4:00 PM65 °FOvercast.2 mph45%29.88 "Hg25 mi
3:00 PM67 °FPartly sunny.2 mph37%29.88 "Hg28 mi
2:00 PM65 °FOvercast.2 mph45%29.89 "Hg25 mi
1:00 PM65 °FOvercast.1 mph52%29.91 "Hg16 mi
12:00 PM65 °FPartly sunny.2 mph52%29.92 "Hg16 mi
10:00 AM59 °FOvercast.3 mph78%29.95 "Hg14 mi
9:00 AM58 °FOvercast.5 mph78%29.95 "Hg16 mi
8:00 AM58 °FOvercast.5 mph77%29.94 "Hg12 mi
Weather by CustomWeather, © 2015

See weather overviewHow to use our weather pages